This demonstration page uses our WeatherBlox Daily Observations layout. Learn more.

Left ArrowRight Arrow

39.92423, -83.80882

Hourly Observations for May 27, 2018

Temp ( °F °C ) Dew Point ( °F °C ) Humidity (%) Winds ( mph kmh ) Pressure ( in mb ) Visibility ( mi km ) Precip ( " mm )
12:56 am 00:56 Clear 70 21.1 68 20 93 93 SW 8 13 29.86 1011 10 16.0934 0 0
1:56 am 01:56 Mostly Clear 69 20.6 67 19.4 93 93 SW 6 9 29.86 1011 10 16.0934 0 0
2:56 am 02:56 Clear 67 19.4 66 18.9 97 97 W 3 6 29.85 1011 10 16.0934 0 0
3:56 am 03:56 Clear 66 18.9 65 18.3 96 96 SSW 5 7 29.85 1011 9 14.48406 0 0
4:56 am 04:56 Clear 66 18.9 65 18.3 96 96 WSW 5 7 29.86 1011 10 16.0934 0 0
5:56 am 05:56 Clear with Mist and Fog 66 18.9 65 18.3 96 96 SW 3 6 29.88 1012 6 9.65604 0 0
6:56 am 06:56 Sunny with Mist and Fog 66 18.9 65 18.3 96 96 W 5 7 29.9 1012 5 8.0467 0 0
7:56 am 07:56 Sunny 70 21.1 67 19.4 90 90 W 6 9 29.92 1013 10 16.0934 0 0
8:56 am 08:56 Sunny 75 23.9 69 20.6 82 82 WSW 7 11 29.93 1014 10 16.0934 0 0
9:56 am 09:56 Sunny 78 25.6 69 20.6 74 74 W 6 9 29.94 1014 10 16.0934 0 0
10:56 am 10:56 Sunny 79 26.1 70 21.1 74 74 VRB 3 6 29.92 1013 10 16.0934 0 0
11:56 am 11:56 Sunny 81 27.2 70 21.1 69 69 WNW 3 6 29.93 1013 10 16.0934 0 0
12:56 pm 12:56 Sunny 84 28.9 69 20.6 61 61 Calm 29.92 1013 10 16.0934 0 0
1:56 pm 13:56 Partly Cloudy 85 29.4 67 19.4 55 55 Calm 29.91 1013 10 16.0934 0 0
2:56 pm 14:56 Sunny 87 30.6 68 20 53 53 VRB 5 7 29.91 1013 10 16.0934 0 0
3:56 pm 15:56 Sunny 88 31.1 67 19.4 50 50 WNW 8 13 29.89 1012 10 16.0934 0 0
4:56 pm 16:56 Mostly Cloudy 88 31.1 67 19.4 50 50 NW 6 9 29.89 1012 10 16.0934 0 0
5:56 pm 17:56 Sunny 88 31.1 64 17.8 45 45 Calm 29.89 1012 10 16.0934 0 0
6:56 pm 18:56 Sunny 86 30 67 19.4 53 53 WNW 3 6 29.9 1012 10 16.0934 0 0
7:56 pm 19:56 Sunny 85 29.4 69 20.6 59 59 SE 7 11 29.91 1013 10 16.0934 0 0
8:56 pm 20:56 Clear 80 26.7 67 19.4 64 64 SSE 7 11 29.92 1013 10 16.0934 0 0
9:56 pm 21:56 Clear 77 25 67 19.4 71 71 SSE 8 13 29.93 1014 10 16.0934 0 0
10:56 pm 22:56 Clear 75 23.9 67 19.4 76 76 S 6 9 29.94 1014 10 16.0934 0 0
11:56 pm 23:56 Clear 74 23.3 67 19.4 79 79 SSW 5 7 29.95 1014 10 16.0934 0 0

Powered by AerisWeather